CW8053 Weather Reports


Display with metric or nautical units.
time (UTC)temp
F
wind
direction
speed
MPH
gust
MPH
rain 1hr
in
rain 24hr
in
rain mn
in
humidity
%
barometer
mb
20260505210838 61 135 1.0 1.0 0.00 1.42 1.42 83 1012.3
20260505205934 61 61 0.0 1.0 0.00 1.42 1.42 83 1012.5
20260505205355 61 132 1.0 2.0 0.00 1.42 1.42 83 1012.4
20260505204435 61 0 0.0 0.0 0.00 1.42 1.42 84 1012.4
20260505203535 61 14 0.0 1.0 0.00 1.42 1.42 84 1012.6
20260505202636 61 209 1.0 2.0 0.00 1.42 1.42 84 1012.7
20260505201735 61 206 0.0 1.0 0.00 1.42 1.42 84 1012.6
20260505200842 61 233 1.0 2.0 0.00 1.42 1.42 84 1012.5
20260505195935 61 247 0.0 2.0 0.00 1.42 1.42 84 1012.6
20260505195334 61 211 0.0 1.0 0.00 1.42 1.42 84 1012.7
20260505194435 61 214 3.0 5.0 0.00 1.42 1.42 84 1012.7
20260505193538 61 213 3.0 4.0 0.00 1.42 1.42 84 1012.5
20260505192634 61 202 1.0 2.0 0.00 1.42 1.42 84 1012.5
20260505191735 61 223 1.0 3.0 0.00 1.42 1.42 84 1012.5
20260505190836 61 0 0.0 0.0 0.00 1.42 1.42 84 1012.4
20260505185935 61 0 0.0 0.0 0.00 1.42 1.42 84 1012.3
20260505185338 61 44 0.0 1.0 0.00 1.42 1.42 83 1012.2
20260505184434 61 0 0.0 0.0 0.00 1.42 1.42 83 1012.2
20260505183535 61 100 0.0 1.0 0.00 1.42 1.42 83 1012.3
20260505182634 61 218 1.0 3.0 0.00 1.42 1.42 83 1012.4
20260505181734 62 147 3.0 5.0 0.00 1.42 1.42 84 1012.4
20260505180855 62 320 0.0 1.0 0.00 1.42 1.42 83 1012.3
20260505175956 62 227 2.0 5.0 0.00 1.42 1.42 83 1012.3
20260505175334 62 216 3.0 4.0 0.00 1.42 1.42 83 1012.3
20260505174437 62 230 0.0 1.0 0.00 1.42 1.42 83 1012.3
20260505173534 62 0 0.0 0.0 0.00 1.42 1.42 83 1012.2
20260505172634 62 221 0.0 2.0 0.00 1.42 1.42 83 1012.2
20260505171737 62 222 2.0 3.0 0.00 1.42 1.42 83 1012.3
20260505170835 62 196 2.0 3.0 0.00 1.42 1.42 83 1012.2
20260505165955 63 216 2.0 6.0 0.00 1.42 1.42 82 1012.2
20260505165355 63 221 3.0 6.0 0.00 1.42 1.42 82 1012.3
20260505164434 64 245 2.0 5.0 0.00 1.42 1.42 80 1012.3
20260505163555 64 227 3.0 5.0 0.00 1.42 1.42 81 1012.2
20260505162634 64 262 1.0 2.0 0.00 1.42 1.42 80 1012.2
20260505161756 65 237 2.0 4.0 0.00 1.42 1.42 79 1012.2
20260505160841 65 201 3.0 5.0 0.00 1.42 1.42 79 1012.2
20260505152636 63 190 2.0 4.0 0.00 1.42 1.42 80 1012.5
20260505151756 63 193 1.0 2.0 0.00 1.42 1.42 80 1012.6
20260505150835 64 280 2.0 4.0 0.00 1.42 1.42 79 1012.5
20260505124435 65 288 1.0 2.0 0.00 1.42 1.42 80 1012.5
20260505123534 64 337 0.0 2.0 0.00 1.42 1.42 78 1012.7
20260505122637 64 0 0.0 0.0 0.00 1.42 1.42 78 1012.7
20260505121734 64 0 0.0 0.0 0.00 1.42 1.42 79 1012.7
20260505120834 64 315 1.0 2.0 0.00 1.42 1.42 80 1012.7
20260505115936 64 306 1.0 4.0 0.00 1.42 1.42 80 1012.7
20260505115334 64 334 1.0 3.0 0.00 1.42 1.42 79 1012.7
20260505114435 63 321 1.0 2.0 0.00 1.42 1.42 80 1012.7
20260505113535 62 318 1.0 3.0 0.00 1.42 1.42 81 1012.7
20260505112634 61 323 1.0 2.0 0.00 1.42 1.42 81 1012.8
20260505111734 61 318 0.0 1.0 0.00 1.42 1.42 81 1012.8
20260505110837 61 291 1.0 4.0 0.00 1.42 1.42 80 1012.9
20260505101736 57 348 2.0 4.0 0.01 1.42 1.42 88 1012.9
20260505100835 58 1 3.0 5.0 0.01 1.42 1.42 90 1012.9
20260505095935 58 322 2.0 6.0 0.01 1.42 1.42 91 1012.9
20260505095356 57 347 1.0 3.0 0.01 1.42 1.42 91 1012.9
20260505094449 57 343 4.0 8.0 0.01 1.42 1.42 88 1012.9
20260505093534 56 341 3.0 6.0 0.00 1.41 1.41 87 1012.8
20260505092634 57 340 2.0 6.0 0.00 1.41 1.41 87 1012.7
20260505091734 57 20 1.0 7.0 0.00 1.41 1.41 88 1012.5
20260505090834 57 5 0.0 3.0 0.00 1.41 1.41 87 1012.5
20260505085934 57 350 2.0 4.0 0.00 1.41 1.41 88 1012.6
20260505085334 57 359 3.0 9.0 0.00 1.41 1.41 89 1012.5
20260505084456 57 333 1.0 2.0 0.00 1.41 1.41 90 1012.5
20260505083534 57 324 2.0 4.0 0.00 1.41 1.41 92 1012.3
20260505082634 57 335 1.0 4.0 0.00 1.41 1.41 94 1012.3
20260505081734 57 332 2.0 6.0 0.00 1.41 1.41 95 1012.4
20260505080834 57 359 1.0 5.0 0.00 1.41 1.41 96 1012.3
20260505075956 57 352 1.0 2.0 0.00 1.41 1.41 96 1012.1
20260505075355 56 312 1.0 3.0 0.00 1.41 1.41 96 1012.0
20260505074517 56 330 1.0 4.0 0.01 1.41 1.41 96 1012.2
20260505073535 56 315 1.0 6.0 0.01 1.41 1.41 96 1012.3
20260505072634 56 15 1.0 3.0 0.02 1.41 1.41 96 1012.4
20260505071755 56 326 1.0 4.0 0.06 1.41 1.41 96 1012.4
20260505070855 55 345 2.0 6.0 0.11 1.41 1.41 96 1012.3
20260505065935 54 340 2.0 4.0 0.13 1.41 1.41 96 1012.2
20260505065334 54 333 1.0 3.0 0.16 1.41 1.41 96 1012.3
20260505064437 54 333 1.0 3.0 0.20 1.40 1.40 95 1012.3
20260505063534 54 315 3.0 4.0 0.30 1.40 1.40 95 1012.1
20260505062634 54 342 3.0 8.0 0.39 1.39 1.39 95 1011.6
20260505061734 54 25 2.0 3.0 0.43 1.35 1.35 95 1011.5
20260505060835 54 338 3.0 12.0 0.43 1.30 1.30 95 1011.3
20260505055934 54 305 3.0 6.0 0.43 1.28 1.28 95 1011.0
20260505055334 54 302 5.0 10.0 0.41 1.25 1.25 95 1010.9
20260505054442 54 338 3.0 12.0 0.39 1.20 1.20 95 1011.2
20260505053536 54 344 2.0 5.0 0.36 1.10 1.10 95 1012.3
20260505052634 54 318 2.0 4.0 0.35 1.01 1.01 95 1012.1
20260505051734 54 355 3.0 13.0 0.31 0.91 0.91 95 1011.8
20260505050834 54 326 2.0 5.0 0.35 0.87 0.87 95 1011.8
20260505041738 55 267 0.0 1.0 0.32 0.60 0.61 94 1011.8
20260505040835 56 240 1.0 3.0 0.30 0.53 0.53 94 1011.6
20260505035935 56 62 1.0 3.0 0.21 0.43 0.43 93 1011.8
20260505035334 56 231 0.0 2.0 0.21 0.42 0.42 93 1011.6
20260505034434 56 330 0.0 1.0 0.19 0.38 0.38 92 1011.4
20260505033534 56 276 1.0 2.0 0.16 0.33 0.33 92 1011.6
20260505032655 56 20 2.0 5.0 0.17 0.31 0.31 92 1011.9
20260505031734 56 355 1.0 2.0 0.15 0.28 0.28 92 1012.0
20260505030834 56 0 0.0 0.0 0.12 0.23 0.23 91 1012.2
20260505025935 56 0 0.0 0.0 0.12 0.21 0.21 90 1012.5
20260505025355 56 349 0.0 1.0 0.11 0.20 0.20 89 1012.6
20260505024434 56 0 0.0 0.0 0.11 0.19 0.19 89 1012.6
20260505023534 56 0 0.0 0.0 0.10 0.17 0.17 87 1012.8
20260505022637 56 0 0.0 0.0 0.09 0.15 0.15 86 1013.0
20260505021734 57 12 1.0 3.0 0.07 0.13 0.13 85 1013.1
20260505020834 57 9 0.0 1.0 0.07 0.11 0.11 85 1013.1
20260505015934 57 0 0.0 0.0 0.07 0.09 0.09 84 1013.2
20260505015335 58 0 0.0 0.0 0.08 0.09 0.09 84 1013.2
20260505014436 58 0 0.0 0.0 0.08 0.08 0.08 83 1013.4
20260505013534 58 0 0.0 0.0 0.07 0.07 0.07 82 1013.5
20260505012639 58 0 0.0 0.0 0.06 0.06 0.06 81 1013.6
20260505011742 58 0 0.0 0.0 0.06 0.06 0.06 79 1013.7
20260505010834 59 29 0.0 2.0 0.04 0.04 0.04 78 1013.9
20260505005935 59 28 2.0 3.0 0.02 0.02 0.02 76 1014.1
20260505005334 60 49 1.0 1.0 0.02 0.02 0.02 75 1014.2
20260505004446 61 0 0.0 0.0 0.00 0.00 0.00 73 1014.3
20260505003535 61 81 1.0 2.0 0.00 0.00 0.00 72 1014.4
20260505002634 61 155 1.0 1.0 0.00 0.00 0.00 70 1014.5
20260505001735 61 337 1.0 4.0 0.00 0.00 0.00 69 1014.6
20260505000855 61 34 0.0 1.0 0.00 0.00 0.00 70 1014.8
20260504235934 61 0 0.0 0.0 0.00 0.00 0.00 70 1014.9
20260504235334 61 0 0.0 0.0 0.00 0.00 0.00 70 1015.0
20260504234434 61 0 0.0 0.0 0.00 0.00 0.00 70 1015.1
20260504233534 61 75 0.0 1.0 0.00 0.00 0.00 70 1015.2
20260504232636 61 117 1.0 2.0 0.00 0.00 0.00 69 1015.5
20260504231734 61 328 0.0 1.0 0.00 0.00 0.00 70 1015.6
20260504230834 61 57 0.0 3.0 0.00 0.00 0.00 71 1015.7
20260504225935 61 0 0.0 0.0 0.00 0.00 0.00 71 1015.8
20260504225356 61 0 0.0 0.0 0.00 0.00 0.00 71 1015.9
20260504224435 61 53 0.0 1.0 0.00 0.00 0.00 72 1016.0
20260504223535 61 0 0.0 0.0 0.00 0.00 0.00 72 1016.1
20260504222655 61 0 0.0 0.0 0.00 0.00 0.00 73 1016.2
20260504221734 61 0 0.0 0.0 0.00 0.00 0.00 74 1016.4
20260504220856 61 0 0.0 0.0 0.00 0.00 0.00 74 1016.4
20260504215935 61 0 0.0 0.0 0.00 0.00 0.00 74 1016.7
20260504215334 61 0 0.0 0.0 0.00 0.00 0.00 74 1016.8
20260504214434 61 0 0.0 0.0 0.00 0.00 0.00 74 1017.0
20260504213555 61 0 0.0 0.0 0.00 0.00 0.00 74 1017.0
20260504212639 61 0 0.0 0.0 0.00 0.00 0.00 75 1017.2
20260504211736 62 0 0.0 0.0 0.00 0.00 0.00 74 1017.3